Location: Caltech
(34.1382°N, 118.1253°W)
Time: 03:49:16
(UTC-07:00)

A-11 Canister half - All Passes

Search period start: 30 August 2016 00:00
Search period end: 09 September 2016 00:00
Orbit: 1517 x 1683 km, 47.2° (Epoch: 29 August)

Date Brightness Start Highest point End Pass type
(mag) Time Alt. Az. Time Alt. Az. Time Alt. Az.
30 Aug - 00:11:48 10° S 00:19:39 32° SE 00:27:39 10° ENE visible
30 Aug - 02:14:33 10° WSW 02:23:53 79° NW 02:33:33 10° NE visible
30 Aug - 04:21:14 10° W 04:30:00 40° NNW 04:39:06 10° ENE visible
30 Aug - 06:28:04 10° NW 06:37:08 42° NNE 06:46:29 10° E daylight
30 Aug - 08:33:18 10° NW 08:43:13 85° NE 08:53:22 10° SE daylight
30 Aug - 10:39:16 10° WNW 10:47:34 31° SW 10:55:58 10° S daylight
30 Aug - 23:49:13 10° S 23:56:50 30° SE 00:04:34 10° ENE visible
31 Aug - 01:51:39 10° SW 02:00:58 83° NW 02:10:36 10° NE visible
31 Aug - 03:58:12 10° W 04:06:59 41° NNW 04:16:05 10° NE visible
31 Aug - 06:05:07 10° NW 06:14:06 41° NNE 06:23:22 10° E daylight
31 Aug - 08:10:24 10° NW 08:20:16 81° NE 08:30:25 10° ESE daylight
31 Aug - 10:16:12 10° WNW 10:24:42 33° SW 10:33:21 10° S daylight
31 Aug - 23:26:40 10° S 23:34:01 27° SE 23:41:27 10° ENE visible
01 Sep - 01:28:46 10° SW 01:38:04 87° NW 01:47:40 10° NE visible
01 Sep - 03:35:10 10° W 03:43:58 42° NNW 03:53:04 10° NE visible
01 Sep - 05:42:10 10° WNW 05:51:05 40° NNE 06:00:16 10° E visible
01 Sep - 07:47:29 10° NW 07:57:19 78° NNE 08:07:26 10° ESE daylight
01 Sep - 09:53:09 10° WNW 10:01:50 36° SW 10:10:41 10° S daylight
01 Sep - 23:04:09 10° S 23:11:13 25° SE 23:18:20 10° ENE visible
02 Sep - 01:05:53 10° SW 01:15:10 89° SE 01:24:44 10° NE visible
02 Sep - 03:12:09 10° W 03:20:58 43° NNW 03:30:05 10° NE visible
02 Sep - 05:19:12 10° WNW 05:28:03 40° N 05:37:11 10° ENE visible
02 Sep - 07:24:35 10° NW 07:34:22 74° NNE 07:44:26 10° ESE daylight
02 Sep - 09:30:08 10° WNW 09:38:58 38° SW 09:48:00 10° SSE daylight
02 Sep - 22:41:41 10° S 22:48:24 23° SE 22:55:11 10° ENE night (unlit)
03 Sep - 00:43:00 10° SW 00:52:16 84° SE 01:01:48 10° NE visible
03 Sep - 02:49:08 10° W 02:57:58 44° NNW 03:07:06 10° NE visible
03 Sep - 04:56:14 10° WNW 05:05:01 39° N 05:14:04 10° ENE visible
03 Sep - 07:01:41 10° NW 07:11:25 71° NNE 07:21:26 10° ESE daylight
03 Sep - 09:07:07 10° WNW 09:16:06 41° SW 09:25:17 10° SSE daylight
03 Sep - 22:19:15 10° S 22:25:36 21° SE 22:31:59 10° E night (unlit)
04 Sep - 00:20:09 10° SW 00:29:23 80° SE 00:38:51 10° NE visible
04 Sep - 02:26:07 10° W 02:34:58 45° NNW 02:44:07 10° NE visible
04 Sep - 04:33:16 10° WNW 04:41:59 38° N 04:50:59 10° ENE visible
04 Sep - 06:38:47 10° NW 06:48:27 68° NNE 06:58:25 10° ESE daylight
04 Sep - 08:44:07 10° WNW 08:53:13 44° SW 09:02:33 10° SSE daylight
04 Sep - 21:56:53 10° SSE 22:02:48 19° SE 22:08:44 10° E night (unlit)
04 Sep - 23:57:18 10° SW 00:06:31 76° SE 00:15:56 10° NE visible
05 Sep - 02:03:06 10° W 02:11:59 47° NNW 02:21:09 10° NE visible
05 Sep - 04:10:17 10° WNW 04:18:57 38° N 04:27:53 10° ENE visible
05 Sep - 06:15:54 10° NW 06:25:30 65° NNE 06:35:24 10° ESE daylight
05 Sep - 08:21:09 10° WNW 08:30:21 47° SW 08:39:48 10° SSE daylight
05 Sep - 21:34:35 10° SSE 21:40:00 17° SE 21:45:25 10° E night (unlit)
05 Sep - 23:34:29 10° SW 23:43:38 71° SE 23:53:00 10° ENE visible
06 Sep - 01:40:05 10° W 01:49:00 48° NNW 01:58:12 10° NE visible
06 Sep - 03:47:19 10° WNW 03:55:56 37° N 04:04:48 10° ENE visible
06 Sep - 05:53:00 10° NW 06:02:31 62° NNE 06:12:22 10° ESE visible
06 Sep - 07:58:11 10° WNW 08:07:28 50° SW 08:17:01 10° SSE daylight
06 Sep - 21:12:22 10° SSE 21:17:12 15° ESE 21:22:02 10° E night (unlit)
06 Sep - 23:11:40 10° SW 23:20:47 67° SE 23:30:04 10° ENE visible
07 Sep - 01:17:05 10° W 01:26:02 50° NNW 01:35:14 10° NE visible
07 Sep - 03:24:19 10° WNW 03:32:54 37° N 03:41:44 10° ENE visible
07 Sep - 05:30:06 10° NW 05:39:33 59° NNE 05:49:20 10° ESE visible
07 Sep - 07:35:13 10° WNW 07:44:35 54° SW 07:54:13 10° SSE daylight
07 Sep - 09:45:52 10° WSW 09:48:10 11° WSW 09:50:29 10° SW daylight
07 Sep - 20:50:17 10° SSE 20:54:24 14° ESE 20:58:31 10° E visible
07 Sep - 22:48:51 10° SW 22:57:55 63° SE 23:07:07 10° ENE visible
08 Sep - 00:54:05 10° W 01:03:04 52° NNW 01:12:17 10° NE visible
08 Sep - 03:01:20 10° WNW 03:09:51 37° N 03:18:39 10° ENE visible
08 Sep - 05:07:12 10° NW 05:16:35 57° NNE 05:26:18 10° ESE visible
08 Sep - 07:12:16 10° WNW 07:21:42 57° SW 07:31:24 10° SSE daylight
08 Sep - 09:21:44 10° W 09:25:21 12° WSW 09:28:59 10° SW daylight
08 Sep - 20:28:26 10° SE 20:31:37 12° ESE 20:34:47 10° ESE visible
08 Sep - 22:26:05 10° SSW 22:35:04 59° SE 22:44:10 10° ENE visible
